Search your local weather  

 
Advertise Here

Hazardous Weather Conditions

No active alerts for NEW YORK, NEW YORK

Current Conditions: NEW YORK, NEW YORK

Overcast


59.0 F

Last Updated on Apr 21 2019, 6:51 pm EDT
Humidity: 62%
Wind Speed: N 0.0 mph
Barometer 30.07 in
Dewpoint: 46.0 F
Visibility: 10.00 mi
Precip: --
Heat Index: NA
Wind Chill: NA
Current conditions at:

New York City, Central Park, NY (KNYC)

Lat: 40.78 Lon: -73.966

Local Radar Image active severe weather and emergency alerts image image weather storm and storm spotter reports image weather observation monitoring service image
Local
Radar
Active
Alerts
Storm Reports Weather
Monitoring

Weather Alert Notification Services


ialert severe weather and emergency alerts by text message and email ialert daily weather forecast by email and text message service ialert real-time weather-observation monitoring and alert notification service ialert storm report monitoring alert notification

Observation History for NEW YORK, NEW YORK


Time Wind
(mph)
Vis
(mi)
Weather Precip (in) Temperature (F) Relative
Humidity
Wind
Chill
(°F)
Heat
Index
(°F)
Pressure
Air Dwpt altimeter
(in)
sea level
(mb)
6:51 pm EDT N 0.0 10.00 Overcast -- 59.0 46.0 62% NA NA 30.07 1017.4
5:51 pm EDT 4.6 10.00 Mostly Cloudy -- 62.0 44.1 52% 62 NA 30.06 1016.9
4:51 pm EDT 5.8 10.00 Fair -- 61.0 42.1 50% 61 NA 30.04 1016.2
3:51 pm EDT 4.6 10.00 Fair -- 64.0 41.0 43% NA NA 30.02 1015.7
2:51 pm EDT S 4.6 10.00 Partly Cloudy -- 64.0 48.0 56% NA NA 30.03 1015.9
1:51 pm EDT 10.00 Overcast -- 59.0 50.0 72% NA NA 30.03 1016.1
12:51 pm EDT 6.9 10.00 Overcast -- 60.0 51.1 72% 59 NA 30.03 1016.0
11:51 am EDT N 0.0 10.00 Overcast -- 60.0 52.0 75% NA NA 30.03 1016.0
10:51 am EDT 10.00 Overcast -- 59.0 51.1 75% NA NA 30.01 1015.3
9:51 am EDT 3.5 10.00 Mostly Cloudy -- 58.0 51.1 78% NA NA 30.01 1015.2
8:51 am EDT 10.00 Fair -- 57.0 51.1 81% NA NA 30.00 1014.8
7:51 am EDT 10.00 A Few Clouds -- 55.0 50.0 83% NA NA 29.97 1013.9
6:51 am EDT 3.5 10.00 Overcast -- 55.0 50.0 83% NA NA 29.95 1013.4
5:51 am EDT 3.5 10.00 Overcast -- 54.0 48.9 83% NA NA 29.94 1013.1
4:51 am EDT SE 4.6 10.00 Overcast -- 54.0 50.0 87% 53 NA 29.91 1012.0
3:51 am EDT N 0.0 10.00 Overcast -- 54.0 50.0 87% NA NA 29.91 M
2:51 am EDT N 0.0 10.00 A Few Clouds -- 53.0 50.0 89% NA NA 29.90 M
1:51 am EDT 5.8 10.00 Mostly Cloudy -- 55.0 50.0 83% 54 NA 29.91 M
12:51 am EDT N 0.0 10.00 A Few Clouds -- 55.0 50.0 83% NA NA 29.90 M
11:51 pm EDT 4.6 10.00 Fair -- 56.0 50.0 81% 55 NA 29.90 M
10:51 pm EDT 10.00 Overcast -- 56.0 50.0 81% NA NA 29.88 M
9:51 pm EDT N 0.0 10.00 Mostly Cloudy -- 55.0 48.9 80% NA NA 29.88 M
8:51 pm EDT S 5.8 10.00 Fair -- 55.0 48.0 77% 54 NA 29.86 M
7:51 pm EDT 10.00 Fair -- 56.0 48.0 75% NA NA 29.86 M

Regional Weather Observation

New York, La Guardia Airport, NY (KLGA)

Mostly Cloudy
57.0 F

Newark, Newark International Airport, NJ (KEWR)

Mostly Cloudy
59.0 F

New York, Kennedy International Airport, NY (KJFK)

Mostly Cloudy
54.0 F

Teterboro, Teterboro Airport, NJ (KTEB)

Overcast
63.0 F

Caldwell, Essex County Airport, NJ (KCDW)

Overcast
62.0 F

Morristown Municipal, NJ (KMMU)

Mostly Cloudy
64.0 F
Advertise Here

Advertise Here